[[{"header":{"parameterUnit":"m.s-1","parameterCategory":2,"la1":30.2991,"la2":30.254,"lo1":-89.0895,"lo2":-89.0444,"dx":0.0017,"dy":0.0017,"nx":28,"ny":28,"refTime":"2023-02-12T09:00:00:Z","depth":"0","parameterNumber":2,"parameterNumberName":"U-component_of_CURRENTS"},"data":[0,0,0,0,0,0,0,0,0,0,0,0,0,0,0,0,0,0,0,0,0,0,0,0,0,0,0,0,0,0,0,0,0,0,0,0,0,0,0,0,0,0,0,0,0,0,0,0,0,0,0,0,0,0,0,0,0,0,0.5027,0.5029,0,0.5175,0.5177,0.5178,0.5213,0.5213,0.5212,0.5212,0.54,0.5406,0.5411,0,0,0,0,0,0,0,0,0,0,0,0,0,0.4748,0.4753,0.5027,0.5029,0.5031,0.5175,0.5177,0.5178,0.5213,0.5213,0.5212,0.5211,0.5399,0.5405,0.5412,0,0,0,0,0,0,0,0,0,0,0,0,0,0.4876,0.4754,0.5026,0.5069,0.5075,0.5175,0.5177,0.5179,0.5214,0.5213,0.5212,0.5211,0.5396,0.5405,0.5413,0.5483,0,0,0.5439,0.5442,0,0,0,0,0,0,0,0,0.4869,0.4886,0.5061,0.5066,0.5073,0.5179,0.5148,0.5284,0.5214,0.5157,0.5212,0.521,0.5334,0.5347,0.537,0.5492,0.55,0.5439,0.5444,0.5448,0.545,0,0,0,0,0,0,0,0.486,0.4879,0.5081,0.5063,0.5071,0.5072,0.5089,0.5173,0.5246,0.5161,0.5165,0.5189,0.5336,0.5362,0.5375,0.5503,0.5439,0.5447,0.5452,0.5455,0.5693,0.5694,0,0,0,0,0,0,0.4853,0.4872,0.5077,0.5086,0.4971,0.5078,0.5097,0.5142,0.5244,0.526,0.519,0.519,0.5348,0.5365,0.5382,0.5487,0.5448,0.5456,0.5461,0.5692,0.5693,0.5695,0,0,0,0,0,0,0.4847,0.4871,0.5071,0.4983,0.501,0.5085,0.5135,0.5146,0.5176,0.5266,0.5281,0.5208,0.5348,0.537,0.5496,0.5494,0.546,0.5467,0.569,0.5692,0.5694,0.5688,0,0,0,0,0,0,0.4839,0.4868,0.4887,0.4984,0.5015,0.5136,0.5136,0.5149,0.5193,0.5195,0.5288,0.5304,0.5349,0.5483,0.5504,0.5505,0.5474,0.5689,0.5691,0.5693,0.5686,0.5689,0.5692,0,0,0,0,0,0.4829,0.4852,0.4887,0.4911,0.5042,0.5138,0.5153,0.5199,0.5195,0.5218,0.5303,0.5301,0.551,0.5494,0.5517,0.552,0.5687,0.569,0.5693,0.5685,0.5689,0.5692,0,0,0,0,0,0,0.4722,0.4862,0.4901,0.4962,0.505,0.5145,0.5171,0.5202,0.5283,0.5288,0.5356,0.5382,0.5479,0.5513,0.5492,0.5593,0.5583,0.5591,0.5568,0.5573,0.5575,0.5455,0.5481,0,0,0,0,0,0.4716,0.4771,0.4906,0.4944,0.5003,0.5088,0.5127,0.5168,0.5256,0.5287,0.5355,0.5428,0.5509,0.5553,0.5629,0.571,0.5672,0.5714,0.5717,0.5719,0.5637,0.5664,0.566,0.5704,0.5704,0.5704,0,0,0.4673,0.4761,0.4785,0.4925,0.4998,0.505,0.5109,0.518,0.5201,0.5301,0.5357,0.5455,0.5538,0.5625,0.5666,0.5653,0.5685,0.5722,0.5724,0.5638,0.5666,0.5661,0.5657,0.5706,0.5706,0.5705,0,0,0.4623,0.4718,0.4758,0.4837,0.4964,0.5021,0.5043,0.5163,0.5206,0.5301,0.5367,0.5467,0.5585,0.5642,0.5685,0.5747,0.5707,0.5768,0.568,0.5711,0.5706,0.5701,0.5627,0.5615,0.576,0.576,0.576,0,0.458,0.4648,0.4775,0.4836,0.4879,0.5001,0.5034,0.5099,0.5227,0.5272,0.5309,0.5478,0.5574,0.565,0.5665,0.5746,0.5715,0.5668,0.5709,0.5704,0.5699,0.5624,0.5612,0.576,0.576,0.576,0.576,0,0.4535,0.462,0.4653,0.4764,0.4819,0.4879,0.4993,0.5052,0.5119,0.5187,0.5299,0.5439,0.5523,0.5583,0.5642,0.566,0.5632,0.572,0.569,0.5693,0.5616,0.5602,0.576,0.576,0.576,0.576,0,0,0.4383,0.4594,0.4602,0.4651,0.4795,0.4825,0.4888,0.4987,0.5004,0.5135,0.5164,0.5325,0.5397,0.5443,0.5548,0.556,0.5531,0.5599,0.5601,0.5497,0.5502,0.5507,0.5492,0.5636,0.5634,0.5633,0.5453,0,0.4326,0.4425,0.4526,0.4562,0.4627,0.4748,0.4793,0.4881,0.4968,0.5031,0.5174,0.5252,0.5348,0.5399,0.5435,0.5537,0.5496,0.5562,0.5532,0.5527,0.5513,0.5479,0.5611,0.5465,0.544,0.5438,0.5436,0,0.424,0.4324,0.4386,0.4518,0.4551,0.4561,0.4628,0.468,0.4816,0.491,0.5,0.5103,0.5177,0.5255,0.5322,0.5361,0.5378,0.5421,0.5419,0.5394,0.5508,0.5465,0.5441,0.5548,0.5415,0.5417,0.5419,0,0.4068,0.4212,0.4253,0.4291,0.4449,0.4465,0.4516,0.4634,0.4712,0.4799,0.4861,0.4966,0.5043,0.5089,0.521,0.5253,0.5237,0.5343,0.5318,0.5316,0.5395,0.5404,0.5443,0.5288,0.5289,0.5289,0.529,0,0.3998,0.401,0.4172,0.4191,0.4216,0.4325,0.4338,0.4447,0.4576,0.4656,0.477,0.4849,0.5006,0.5058,0.5123,0.5173,0.5181,0.5227,0.527,0.5398,0.5408,0.548,0.5486,0.5282,0.5284,0.5285,0.5286,0,0.3863,0.3971,0.4003,0.4127,0.4167,0.4156,0.4292,0.4311,0.444,0.4533,0.4565,0.4763,0.4863,0.496,0.5046,0.508,0.506,0.5111,0.519,0.5245,0.5335,0.5335,0.4885,0.4742,0.5027,0.5026,0.5025,0,0.3844,0.3852,0.3942,0.3961,0.4026,0.4048,0.4102,0.4254,0.4305,0.4496,0.4551,0.467,0.4828,0.4924,0.5038,0.5083,0.5009,0.511,0.523,0.5288,0.532,0.5002,0.4892,0.5316,0.5317,0.5319,0.532,0,0.3784,0.3785,0.383,0.3887,0.3914,0.3927,0.4008,0.4052,0.4214,0.4338,0.4514,0.4643,0.4851,0.5049,0.5102,0.5147,0.5033,0.5134,0.5228,0.5524,0.5142,0.5052,0.5406,0.5332,0.5331,0.533,0.5329,0.5329,0.3719,0.3729,0.3784,0.3787,0.381,0.3784,0.3772,0.3887,0.3993,0.4198,0.442,0.4684,0.5089,0.5287,0.5228,0.5376,0.5093,0.5435,0.5406,0.5053,0.4972,0.5269,0.5251,0.525,0.5248,0.5247,0.5246,0,0.3636,0.3643,0.3694,0.3667,0.3591,0.3655,0.37,0.3707,0.3783,0.4137,0.4362,0.4959,0.527,0.5515,0.5849,0.5788,0.5417,0.5681,0.5394,0.5255,0.5649,0.5745,0.58,0.58,0.5799,0.5799,0.5799,0.5799,0.3608,0.3565,0.3577,0.3428,0.3396,0.3298,0.3281,0.3408,0.3656,0.4021,0.4434,0.4823,0.5483,0.6132,0.6358,0.6191,0.5815,0.5571,0.5328,0.5919,0.5897,0.5877,0.5976,0.6078,0.6078,0.4864,0.4857,0.4851]},{"header":{"parameterUnit":"m.s-1","parameterCategory":2,"la1":30.2991,"la2":30.254,"lo1":-89.0895,"lo2":-89.0444,"dx":0.0017,"dy":0.0017,"nx":28,"ny":28,"refTime":"2023-02-12T09:00:00:Z","depth":"0","parameterNumber":3,"parameterNumberName":"V-component_of_CURRENTS"},"data":[0,0,0,0,0,0,0,0,0,0,0,0,0,0,0,0,0,0,0,0,0,0,0,0,0,0,0,0,0,0,0,0,0,0,0,0,0,0,0,0,0,0,0,0,0,0,0,0,0,0,0,0,0,0,0,0,0,0,-0.0294,-0.0295,0,-0.0403,-0.0404,-0.0406,-0.0503,-0.0504,-0.0506,-0.0507,-0.071,-0.0715,-0.0719,0,0,0,0,0,0,0,0,0,0,0,0,0,-0.0091,-0.0094,-0.0293,-0.0295,-0.0296,-0.0403,-0.0404,-0.0406,-0.0503,-0.0504,-0.0506,-0.0507,-0.0709,-0.0714,-0.0719,0,0,0,0,0,0,0,0,0,0,0,0,0,-0.0186,-0.0095,-0.0293,-0.0359,-0.0366,-0.0403,-0.0404,-0.0406,-0.0503,-0.0504,-0.0506,-0.0508,-0.0707,-0.0714,-0.072,-0.0721,0,0,-0.0739,-0.0742,0,0,0,0,0,0,0,0,-0.0181,-0.0193,-0.0348,-0.0354,-0.0362,-0.0443,-0.0408,-0.0517,-0.0502,-0.0449,-0.0507,-0.0509,-0.0629,-0.0642,-0.0655,-0.0731,-0.074,-0.074,-0.0744,-0.0746,-0.0748,0,0,0,0,0,0,0,-0.0174,-0.0189,-0.0336,-0.0349,-0.0358,-0.0356,-0.0372,-0.0428,-0.0528,-0.0454,-0.0462,-0.0475,-0.0634,-0.0649,-0.0661,-0.0743,-0.074,-0.0745,-0.0749,-0.0752,-0.0881,-0.0881,0,0,0,0,0,0,-0.0166,-0.0183,-0.0332,-0.0339,-0.0276,-0.0359,-0.0377,-0.0414,-0.0526,-0.0544,-0.0474,-0.0479,-0.0637,-0.0653,-0.0669,-0.0693,-0.0746,-0.0752,-0.0756,-0.0881,-0.0881,-0.0881,0,0,0,0,0,0,-0.0161,-0.0179,-0.0328,-0.0263,-0.0282,-0.0361,-0.0401,-0.0415,-0.0434,-0.054,-0.056,-0.0479,-0.0639,-0.066,-0.0735,-0.0702,-0.0755,-0.0761,-0.0882,-0.0881,-0.0881,-0.0732,0,0,0,0,0,0,-0.0155,-0.0177,-0.0169,-0.0263,-0.0286,-0.0335,-0.04,-0.0416,-0.044,-0.0449,-0.0551,-0.0572,-0.0642,-0.0724,-0.0741,-0.0711,-0.0766,-0.0882,-0.0882,-0.0881,-0.0738,-0.0727,-0.0717,0,0,0,0,0,-0.0148,-0.0133,-0.0168,-0.0184,-0.0284,-0.0334,-0.0344,-0.0404,-0.0438,-0.0431,-0.0522,-0.0569,-0.0731,-0.073,-0.0749,-0.072,-0.0883,-0.0882,-0.0881,-0.0742,-0.0729,-0.0718,0,0,0,0,0,0,-0.0015,-0.0145,-0.0185,-0.0204,-0.0258,-0.0351,-0.0338,-0.0391,-0.0453,-0.0466,-0.0572,-0.0599,-0.0644,-0.071,-0.0705,-0.0758,-0.081,-0.0813,-0.0698,-0.0687,-0.0676,-0.0608,-0.0771,0,0,0,0,0,0.0012,-0.0017,-0.0132,-0.0129,-0.0164,-0.0248,-0.0267,-0.032,-0.0398,-0.0426,-0.0501,-0.0585,-0.0652,-0.0693,-0.0755,-0.0789,-0.0827,-0.0783,-0.0773,-0.0763,-0.0722,-0.0784,-0.0774,-0.0878,-0.0878,-0.0878,0,0,0.007,0.0002,-0.0011,-0.0101,-0.015,-0.0163,-0.0264,-0.0292,-0.03,-0.0439,-0.046,-0.0547,-0.0653,-0.0691,-0.0716,-0.0745,-0.0752,-0.0762,-0.0753,-0.0716,-0.0782,-0.0771,-0.0762,-0.0877,-0.0877,-0.0877,0,0,0.0164,0.0102,0.0094,0.0059,-0.0018,-0.0076,-0.0083,-0.0184,-0.0231,-0.0282,-0.0376,-0.0448,-0.0548,-0.0612,-0.0662,-0.0633,-0.0692,-0.0652,-0.0549,-0.0609,-0.06,-0.0593,-0.061,-0.0605,-0.0652,-0.0652,-0.0652,0,0.0236,0.0212,0.01,0.0099,0.0094,-0.0032,-0.0018,-0.0074,-0.0177,-0.0204,-0.0272,-0.0409,-0.0506,-0.0547,-0.0542,-0.0605,-0.0634,-0.0584,-0.0592,-0.0586,-0.0581,-0.06,-0.0597,-0.0645,-0.0646,-0.0646,-0.0647,0,0.0313,0.0312,0.0319,0.0264,0.0246,0.0247,0.0139,0.011,0.003,-0.0034,-0.0106,-0.0251,-0.0326,-0.0376,-0.0455,-0.0458,-0.0486,-0.0566,-0.0612,-0.0561,-0.0585,-0.0584,-0.0634,-0.0637,-0.0639,-0.0641,0,0,0.0393,0.037,0.0373,0.0397,0.0332,0.0324,0.031,0.0253,0.0264,0.0134,0.0131,-0.0016,-0.0092,-0.0151,-0.0265,-0.0328,-0.0332,-0.0413,-0.042,-0.0405,-0.0422,-0.0441,-0.0443,-0.0413,-0.0413,-0.0412,-0.0446,0,0.048,0.0538,0.0487,0.057,0.0589,0.0504,0.0511,0.0455,0.038,0.0352,0.0178,0.0134,-0.001,-0.0044,-0.0127,-0.0284,-0.0324,-0.0312,-0.0493,-0.0496,-0.0502,-0.0442,-0.043,-0.0458,-0.0445,-0.0445,-0.0445,0,0.0543,0.0583,0.0673,0.0717,0.0713,0.0749,0.0753,0.0746,0.0664,0.0597,0.0513,0.0388,0.0279,0.014,-0.0069,-0.0052,-0.0195,-0.0327,-0.0333,-0.0394,-0.0514,-0.0515,-0.0458,-0.0744,-0.0445,-0.0445,-0.0445,0,0.0646,0.0703,0.0795,0.0818,0.0843,0.087,0.0876,0.0832,0.0836,0.0776,0.077,0.0607,0.0524,0.0319,0.0038,-0.0005,-0.0188,-0.0298,-0.0438,-0.0441,-0.0484,-0.0491,-0.0702,-0.0406,-0.0406,-0.0406,-0.0406,0,0.0742,0.0816,0.0864,0.0924,0.103,0.1006,0.1098,0.1066,0.1053,0.1098,0.0924,0.0909,0.0564,0.0396,0.0137,-0.0129,-0.0114,-0.0376,-0.0444,-0.0432,-0.0434,-0.0731,-0.0947,-0.0407,-0.0407,-0.0407,-0.0406,0,0.0829,0.0864,0.0976,0.1051,0.1082,0.1161,0.123,0.1298,0.1269,0.1324,0.1313,0.1137,0.0926,0.0594,0.026,0.0012,-0.0446,-0.0348,-0.0284,-0.0344,-0.075,-0.0958,-0.1224,-0.1463,-0.0493,-0.0494,-0.0494,0,0.0873,0.0948,0.1077,0.1155,0.1197,0.1308,0.1386,0.1395,0.1475,0.1466,0.1507,0.1333,0.1235,0.0752,0.0281,-0.0128,-0.0463,-0.038,-0.0475,-0.0731,-0.1015,-0.1138,-0.1332,-0.047,-0.0471,-0.0471,-0.0471,0,0.0962,0.1012,0.1111,0.1277,0.139,0.1519,0.1637,0.1719,0.1754,0.1813,0.1853,0.1786,0.132,0.0908,0.0336,0.0007,-0.0639,-0.0396,-0.0698,-0.1023,-0.1136,-0.1412,-0.0469,-0.0473,-0.0473,-0.0472,-0.0472,-0.0472,0.1021,0.1104,0.124,0.1409,0.1543,0.1713,0.1834,0.1977,0.2126,0.227,0.2161,0.2198,0.1556,0.0764,0.0234,-0.0626,-0.0704,-0.0859,-0.1085,-0.1177,-0.143,-0.0458,-0.053,-0.053,-0.0531,-0.0531,-0.0531,0,0.1083,0.1199,0.1358,0.1553,0.1721,0.1776,0.1995,0.2167,0.2385,0.2576,0.2649,0.2461,0.1601,0.0751,-0.0434,-0.1121,-0.1461,-0.1518,-0.1714,-0.1888,-0.1028,-0.105,-0.1193,-0.1193,-0.1193,-0.1192,-0.1192,-0.1192,0.111,0.1282,0.1386,0.168,0.1818,0.2055,0.2191,0.248,0.2708,0.3041,0.3194,0.3235,0.2658,0.0315,-0.1301,-0.1768,-0.2351,-0.2431,-0.2779,-0.2194,-0.2149,-0.2107,-0.2173,-0.255,-0.2552,-0.3534,-0.3544,-0.3551]}],[{"header":{"parameterUnit":"m.s-1","parameterCategory":2,"la1":30.2991,"la2":30.254,"lo1":-89.0895,"lo2":-89.0444,"dx":0.0017,"dy":0.0017,"nx":28,"ny":28,"refTime":"2023-02-12T09:00:00:Z","depth":"2","parameterNumber":2,"parameterNumberName":"U-component_of_CURRENTS"},"data":[0,0,0,0,0,0,0,0,0,0,0,0,0,0,0,0,0,0,0,0,0,0,0,0,0,0,0,0,0,0,0,0,0,0,0,0,0,0,0,0,0,0,0,0,0,0,0,0,0,0,0,0,0,0,0,0,0,0,0.481,0.4811,0,0.4945,0.4946,0.4948,0.5009,0.5008,0.5008,0.5007,0.5078,0.508,0.5083,0,0,0,0,0,0,0,0,0,0,0,0,0,0.4495,0.4502,0.481,0.4811,0.4812,0.4944,0.4947,0.4949,0.5009,0.5008,0.5008,0.5007,0.5077,0.508,0.5083,0,0,0,0,0,0,0,0,0,0,0,0,0,0.4636,0.4504,0.481,0.4855,0.486,0.4944,0.4947,0.4949,0.5009,0.5008,0.5007,0.5007,0.5076,0.508,0.5083,0.5123,0,0,0.5094,0.5096,0,0,0,0,0,0,0,0,0.4628,0.4648,0.4847,0.4852,0.4858,0.4955,0.4861,0.5003,0.5009,0.4957,0.5007,0.5006,0.5029,0.5036,0.5071,0.5126,0.5129,0.5095,0.5097,0.5099,0.51,0,0,0,0,0,0,0,0.4618,0.4642,0.4868,0.4848,0.4855,0.483,0.4851,0.4889,0.4999,0.4962,0.4965,0.4973,0.5032,0.5067,0.5073,0.513,0.5095,0.5098,0.51,0.5102,0.5334,0.5338,0,0,0,0,0,0,0.4601,0.4634,0.4863,0.4871,0.4733,0.4837,0.486,0.4928,0.5,0.5009,0.4974,0.4976,0.5062,0.5068,0.5075,0.5188,0.5099,0.5102,0.5104,0.533,0.5335,0.5339,0,0,0,0,0,0,0.4594,0.4622,0.4858,0.4747,0.4775,0.4844,0.4919,0.4931,0.4976,0.5009,0.5018,0.5006,0.5061,0.507,0.5147,0.5189,0.5104,0.5107,0.5325,0.5331,0.5337,0.5374,0,0,0,0,0,0,0.4586,0.4621,0.4654,0.4749,0.4781,0.4902,0.492,0.4935,0.4979,0.4983,0.5039,0.5045,0.5061,0.5142,0.515,0.5192,0.511,0.532,0.5328,0.5335,0.5368,0.5381,0.5392,0,0,0,0,0,0.4575,0.4588,0.4657,0.4683,0.4831,0.4902,0.4916,0.4962,0.4982,0.5001,0.5067,0.5043,0.5195,0.5148,0.5157,0.52,0.5316,0.5326,0.5334,0.5362,0.5378,0.5391,0,0,0,0,0,0,0.4472,0.4599,0.4675,0.4734,0.4823,0.491,0.4923,0.497,0.5041,0.505,0.5088,0.51,0.519,0.52,0.5147,0.5298,0.5255,0.5266,0.5273,0.5288,0.53,0.5159,0.5113,0,0,0,0,0,0.4473,0.4502,0.4653,0.4688,0.4754,0.4855,0.4887,0.4934,0.5007,0.5038,0.5094,0.5162,0.5237,0.5262,0.5326,0.5393,0.5331,0.5435,0.5447,0.5456,0.5355,0.5372,0.5373,0.5369,0.5368,0.5368,0,0,0.4434,0.4503,0.4524,0.4664,0.4749,0.4824,0.4874,0.4933,0.4979,0.5033,0.512,0.5205,0.527,0.5364,0.5403,0.5371,0.5434,0.5467,0.5474,0.5365,0.5381,0.538,0.5379,0.5375,0.5373,0.5373,0,0,0.4354,0.4469,0.4487,0.4578,0.4701,0.4772,0.4797,0.4935,0.4992,0.5095,0.5163,0.5258,0.5372,0.5424,0.5463,0.5572,0.5507,0.5629,0.5554,0.5577,0.5574,0.5571,0.5502,0.5493,0.5622,0.5622,0.5622,0,0.4275,0.4368,0.4494,0.4561,0.4611,0.4756,0.4805,0.4896,0.5028,0.5067,0.5119,0.5307,0.5384,0.5461,0.5511,0.5587,0.5553,0.5492,0.5582,0.5578,0.5573,0.5504,0.5492,0.5625,0.5625,0.5625,0.5624,0,0.4276,0.4333,0.4351,0.449,0.4576,0.4616,0.4793,0.4874,0.497,0.5054,0.5177,0.5307,0.539,0.5481,0.552,0.5558,0.5528,0.5603,0.552,0.5574,0.5501,0.5487,0.5629,0.5628,0.5627,0.5627,0,0,0.4085,0.4289,0.4291,0.436,0.4533,0.4606,0.4702,0.4819,0.4862,0.5025,0.5067,0.5247,0.5311,0.5354,0.5458,0.5472,0.5461,0.5503,0.5503,0.5382,0.5428,0.5421,0.5405,0.5559,0.5557,0.5556,0.539,0,0.4015,0.4105,0.4217,0.4288,0.4379,0.4525,0.4608,0.4743,0.4847,0.4938,0.5078,0.5174,0.5273,0.5328,0.5365,0.5458,0.5425,0.5491,0.5432,0.5426,0.5374,0.539,0.5025,0.4848,0.5376,0.5374,0.5372,0,0.3977,0.405,0.4114,0.4245,0.4298,0.4347,0.4484,0.4565,0.472,0.4815,0.4907,0.5018,0.5095,0.5181,0.5243,0.5284,0.5304,0.535,0.5348,0.5284,0.5394,0.4885,0.4803,0.5349,0.5351,0.5353,0.5354,0,0.3857,0.3951,0.3983,0.4042,0.4239,0.4267,0.4347,0.4512,0.4601,0.4701,0.4761,0.4872,0.4955,0.5001,0.5128,0.5174,0.5156,0.526,0.5231,0.5229,0.4864,0.4835,0.5206,0.5206,0.5207,0.5207,0.5208,0,0.3775,0.3783,0.3924,0.3983,0.4013,0.4184,0.4213,0.4325,0.4472,0.4559,0.4672,0.4754,0.4915,0.497,0.5041,0.5086,0.5095,0.5142,0.5182,0.4878,0.4853,0.5251,0.5258,0.5201,0.5202,0.5203,0.5205,0,0.3693,0.3754,0.3795,0.3947,0.3978,0.4017,0.4159,0.421,0.4337,0.4436,0.4471,0.4666,0.4766,0.4871,0.4959,0.4987,0.5024,0.5019,0.4612,0.4609,0.5075,0.5088,0.4933,0.4932,0.493,0.4929,0.4928,0,0.3677,0.3692,0.3778,0.3796,0.3851,0.3913,0.3978,0.4137,0.4208,0.4398,0.4455,0.4577,0.472,0.481,0.481,0.4829,0.499,0.4492,0.4539,0.499,0.5045,0.506,0.5074,0.4049,0.4041,0.4034,0.4029,0,0.3624,0.3611,0.3676,0.3736,0.3764,0.3797,0.389,0.3934,0.4119,0.4235,0.4409,0.4525,0.4623,0.4531,0.4534,0.451,0.4474,0.4367,0.4893,0.4242,0.4162,0.4218,0.4257,0.3969,0.3975,0.398,0.3983,0.3985,0.3549,0.3522,0.3568,0.3635,0.3656,0.365,0.3653,0.3761,0.3857,0.3936,0.4171,0.418,0.427,0.4128,0.4027,0.3899,0.4242,0.4071,0.4086,0.411,0.4106,0.4036,0.3809,0.3813,0.3818,0.3821,0.3825,0,0.3457,0.3425,0.3467,0.3461,0.3442,0.3516,0.3583,0.3489,0.3521,0.3656,0.375,0.3477,0.3439,0.3518,0.3263,0.3304,0.3202,0.3181,0.3028,0.3093,0.3149,0.309,0.2525,0.252,0.2516,0.2512,0,0,0.3324,0.3323,0.334,0.3238,0.3245,0.3064,0.3069,0.3009,0.303,0.2999,0.3009,0.3156,0.3404,0.2874,0.2863,0.2664,0.2829,0.2543,0.3596,0.3479,0.3528,0.369,0.3679,0,0,0,0,0]},{"header":{"parameterUnit":"m.s-1","parameterCategory":2,"la1":30.2991,"la2":30.254,"lo1":-89.0895,"lo2":-89.0444,"dx":0.0017,"dy":0.0017,"nx":28,"ny":28,"refTime":"2023-02-12T09:00:00:Z","depth":"2","parameterNumber":3,"parameterNumberName":"V-component_of_CURRENTS"},"data":[0,0,0,0,0,0,0,0,0,0,0,0,0,0,0,0,0,0,0,0,0,0,0,0,0,0,0,0,0,0,0,0,0,0,0,0,0,0,0,0,0,0,0,0,0,0,0,0,0,0,0,0,0,0,0,0,0,0,-0.0185,-0.0185,0,-0.0284,-0.0285,-0.0287,-0.0401,-0.0403,-0.0404,-0.0405,-0.0551,-0.0553,-0.0556,0,0,0,0,0,0,0,0,0,0,0,0,0,0.0017,0.0013,-0.0184,-0.0185,-0.0186,-0.0284,-0.0285,-0.0287,-0.0401,-0.0403,-0.0404,-0.0406,-0.055,-0.0553,-0.0556,0,0,0,0,0,0,0,0,0,0,0,0,0,-0.0079,0.0012,-0.0184,-0.0252,-0.0259,-0.0283,-0.0285,-0.0288,-0.0401,-0.0403,-0.0405,-0.0407,-0.0549,-0.0553,-0.0557,-0.054,0,0,-0.0569,-0.057,0,0,0,0,0,0,0,0,-0.0073,-0.0087,-0.0241,-0.0247,-0.0255,-0.0329,-0.0267,-0.0373,-0.04,-0.0351,-0.0405,-0.0408,-0.0477,-0.0487,-0.0506,-0.0546,-0.0553,-0.0569,-0.0571,-0.0573,-0.0574,0,0,0,0,0,0,0,-0.0067,-0.0082,-0.0228,-0.0242,-0.025,-0.0239,-0.0257,-0.0288,-0.0405,-0.0355,-0.0363,-0.0367,-0.0482,-0.0502,-0.051,-0.0555,-0.0569,-0.0572,-0.0575,-0.0576,-0.07,-0.0701,0,0,0,0,0,0,-0.0051,-0.0077,-0.0225,-0.023,-0.0163,-0.0241,-0.0261,-0.0306,-0.0404,-0.0419,-0.0365,-0.0372,-0.0494,-0.0505,-0.0516,-0.0545,-0.0573,-0.0577,-0.0579,-0.0699,-0.07,-0.0701,0,0,0,0,0,0,-0.0047,-0.0065,-0.022,-0.015,-0.0169,-0.0243,-0.0293,-0.0307,-0.0335,-0.041,-0.0428,-0.0378,-0.0496,-0.051,-0.0558,-0.055,-0.0578,-0.0582,-0.0698,-0.0699,-0.07,-0.0575,0,0,0,0,0,0,-0.0042,-0.0064,-0.0061,-0.015,-0.0172,-0.0216,-0.0291,-0.0307,-0.0332,-0.0342,-0.0427,-0.0442,-0.0499,-0.0551,-0.0562,-0.0556,-0.0585,-0.0696,-0.0698,-0.07,-0.0578,-0.0572,-0.0567,0,0,0,0,0,-0.0035,-0.0016,-0.0062,-0.0077,-0.0178,-0.0214,-0.0223,-0.0284,-0.033,-0.0322,-0.0402,-0.044,-0.0571,-0.0554,-0.0566,-0.0561,-0.0696,-0.0698,-0.07,-0.0581,-0.0573,-0.0567,0,0,0,0,0,0,0.0089,-0.0028,-0.008,-0.0096,-0.0146,-0.0232,-0.0214,-0.0273,-0.0329,-0.0344,-0.0436,-0.0455,-0.0498,-0.0551,-0.053,-0.061,-0.0645,-0.065,-0.0551,-0.0545,-0.0539,-0.0459,-0.0588,0,0,0,0,0,0.0114,0.0096,-0.0017,-0.0012,-0.0047,-0.0134,-0.0148,-0.0202,-0.0271,-0.0298,-0.037,-0.0451,-0.0513,-0.0544,-0.0601,-0.0626,-0.0653,-0.0642,-0.0636,-0.063,-0.0578,-0.0637,-0.063,-0.0708,-0.0708,-0.0708,0,0,0.0167,0.0111,0.0099,0.0016,-0.0033,-0.0053,-0.0149,-0.0168,-0.0187,-0.0302,-0.0341,-0.0422,-0.0516,-0.0558,-0.0582,-0.0601,-0.0626,-0.0633,-0.0627,-0.0577,-0.0638,-0.063,-0.0622,-0.0709,-0.0709,-0.0709,0,0,0.0273,0.0202,0.0207,0.0169,0.0102,0.0041,0.0034,-0.0072,-0.0125,-0.0178,-0.0273,-0.0342,-0.0441,-0.0501,-0.0547,-0.0541,-0.0591,-0.0582,-0.0483,-0.0542,-0.0534,-0.0527,-0.0548,-0.0544,-0.0582,-0.0581,-0.0581,0,0.035,0.0325,0.0219,0.0218,0.0211,0.0082,0.0092,0.0026,-0.0076,-0.01,-0.0176,-0.0322,-0.0408,-0.0448,-0.046,-0.052,-0.055,-0.0494,-0.0528,-0.0522,-0.0517,-0.054,-0.0538,-0.0576,-0.0576,-0.0577,-0.0577,0,0.0417,0.0428,0.0441,0.0379,0.0352,0.0361,0.0235,0.0197,0.0103,0.0032,-0.0044,-0.0181,-0.0256,-0.0323,-0.0388,-0.0404,-0.0433,-0.0507,-0.0526,-0.05,-0.0529,-0.0528,-0.0567,-0.0569,-0.0571,-0.0572,0,0,0.0503,0.0494,0.0498,0.0515,0.0441,0.042,0.0394,0.0334,0.0333,0.019,0.0179,0.0027,-0.0047,-0.0103,-0.0216,-0.0279,-0.0294,-0.0363,-0.0369,-0.0347,-0.0388,-0.041,-0.0412,-0.0376,-0.0376,-0.0375,-0.0417,0,0.0594,0.066,0.0613,0.0679,0.0689,0.0597,0.059,0.0519,0.0438,0.0395,0.0229,0.0174,0.0031,-0.0005,-0.0089,-0.0243,-0.0287,-0.0272,-0.0445,-0.0448,-0.0443,-0.041,-0.0412,-0.045,-0.0417,-0.0417,-0.0417,0,0.0642,0.069,0.078,0.0824,0.0813,0.0833,0.081,0.0793,0.0706,0.0638,0.0554,0.0427,0.0319,0.0178,-0.003,-0.0015,-0.0159,-0.0292,-0.0299,-0.0348,-0.0468,-0.0477,-0.045,-0.0417,-0.0417,-0.0417,-0.0417,0,0.0719,0.0797,0.0892,0.0904,0.0919,0.0943,0.094,0.088,0.0882,0.0815,0.0806,0.0644,0.0558,0.0354,0.0072,0.0029,-0.0157,-0.0264,-0.0408,-0.0411,-0.0454,-0.0462,-0.0371,-0.0371,-0.0371,-0.037,-0.037,0,0.0814,0.0886,0.0948,0.0993,0.1095,0.1052,0.1137,0.1104,0.1088,0.1128,0.0955,0.0935,0.0596,0.0427,0.0169,-0.01,-0.0083,-0.0346,-0.0415,-0.0414,-0.0418,-0.0431,-0.0437,-0.0372,-0.0372,-0.0371,-0.0371,0,0.0877,0.0929,0.1036,0.1105,0.1139,0.1199,0.1267,0.1325,0.1295,0.1345,0.1333,0.1157,0.0943,0.0615,0.0282,0.0037,-0.0229,-0.0324,-0.0277,-0.0339,-0.0462,-0.0462,-0.0473,-0.0474,-0.0475,-0.0475,-0.0476,0,0.0917,0.0989,0.1118,0.1195,0.1243,0.1339,0.1415,0.1423,0.1495,0.148,0.1519,0.1341,0.1234,0.0752,0.0288,-0.012,-0.0193,-0.0379,-0.047,-0.0401,-0.0468,-0.0467,-0.0466,-0.0485,-0.0485,-0.0486,-0.0486,0,0.0997,0.1051,0.1144,0.1308,0.1419,0.1543,0.1656,0.1735,0.1762,0.1814,0.1847,0.1772,0.1304,0.086,0.0289,-0.001,-0.0321,-0.0401,-0.0343,-0.0456,-0.0416,-0.0481,-0.0479,-0.0491,-0.049,-0.049,-0.049,-0.049,0.1053,0.1139,0.1274,0.1433,0.1564,0.1728,0.1846,0.1967,0.2103,0.2164,0.2064,0.1937,0.1454,0.0693,0.02,-0.0338,-0.032,-0.0527,-0.0524,-0.0521,-0.0513,-0.0476,-0.0558,-0.0558,-0.0558,-0.0558,-0.0558,0,0.1113,0.1233,0.1388,0.1576,0.1729,0.1789,0.2001,0.2108,0.2294,0.2311,0.2304,0.183,0.1291,0.0745,-0.0051,-0.0498,-0.0558,-0.0647,-0.063,-0.0622,-0.0616,-0.0613,-0.0685,-0.0686,-0.0687,-0.0688,0,0,0.1158,0.1313,0.1414,0.1691,0.1823,0.2037,0.2169,0.2336,0.2404,0.2466,0.2368,0.2083,0.1441,0.0848,0.022,-0.0229,-0.032,-0.0327,-0.0181,-0.008,-0.0068,-0.0511,-0.0492,0,0,0,0,0]}],[{"header":{"parameterUnit":"m.s-1","parameterCategory":2,"la1":30.2991,"la2":30.254,"lo1":-89.0895,"lo2":-89.0444,"dx":0.0017,"dy":0.0017,"nx":28,"ny":28,"refTime":"2023-02-12T09:00:00:Z","depth":"4","parameterNumber":2,"parameterNumberName":"U-component_of_CURRENTS"},"data":[0,0,0,0,0,0,0,0,0,0,0,0,0,0,0,0,0,0,0,0,0,0,0,0,0,0,0,0,0,0,0,0,0,0,0,0,0,0,0,0,0,0,0,0,0,0,0,0,0,0,0,0,0,0,0,0,0,0,0.0375,0.0372,0,0.0219,0.022,0.022,0.0357,0.0361,0.0364,0.0367,0.047,0.047,0.0469,0,0,0,0,0,0,0,0,0,0,0,0,0,0.0489,0.0491,0.0376,0.0371,0.0367,0.0219,0.022,0.022,0.0357,0.0361,0.0365,0.0369,0.047,0.047,0.0469,0,0,0,0,0,0,0,0,0,0,0,0,0,0.0422,0.0491,0.0376,0.0399,0.0398,0.0219,0.022,0.022,0.0356,0.0361,0.0366,0.0371,0.047,0.047,0.0469,0.0364,0,0,0.0467,0.0467,0,0,0,0,0,0,0,0,0.0426,0.0421,0.04,0.0397,0.0395,0.0291,0.0295,0.0272,0.0355,0.0398,0.0367,0.0373,0.0414,0.0418,0.041,0.0369,0.0373,0.0467,0.0467,0.0467,0.0466,0,0,0,0,0,0,0,0.0431,0.0426,0.0339,0.0395,0.0391,0.0311,0.0314,0.0291,0.0404,0.0395,0.0398,0.034,0.0419,0.041,0.0413,0.0375,0.0467,0.0467,0.0466,0.0466,0.0617,0.0621,0,0,0,0,0,0,0.041,0.0432,0.0343,0.0332,0.0395,0.0305,0.0308,0.034,0.0399,0.0403,0.0335,0.0346,0.0408,0.0414,0.0418,0.0792,0.0467,0.0466,0.0466,0.0613,0.0618,0.0623,0,0,0,0,0,0,0.0415,0.0408,0.0349,0.0353,0.0337,0.0298,0.0332,0.0333,0.0472,0.0346,0.0362,0.0486,0.0413,0.0419,0.0469,0.0778,0.0466,0.0465,0.0608,0.0614,0.0621,0.1222,0,0,0,0,0,0,0.0421,0.0413,0.0563,0.0355,0.0335,0.0347,0.0324,0.0326,0.0405,0.0424,0.0476,0.0482,0.0417,0.047,0.0468,0.0772,0.0465,0.0602,0.0611,0.0618,0.1196,0.1248,0.1292,0,0,0,0,0,0.0427,0.0573,0.0574,0.0566,0.0502,0.0347,0.0338,0.0335,0.041,0.0486,0.0486,0.0489,0.0525,0.0469,0.0467,0.078,0.0598,0.0608,0.0618,0.1175,0.1238,0.1291,0,0,0,0,0,0,0.0759,0.059,0.0589,0.0705,0.0578,0.0365,0.0417,0.0424,0.0486,0.0576,0.0493,0.0495,0.066,0.0571,0.0513,0.0825,0.0584,0.0594,0.1009,0.1067,0.1114,0.1223,0.0464,0,0,0,0,0,0.0873,0.0916,0.0721,0.0817,0.0746,0.062,0.061,0.0618,0.0556,0.0603,0.0656,0.0678,0.0667,0.075,0.071,0.0872,0.0756,0.1069,0.1118,0.1161,0.1235,0.1213,0.127,0.0655,0.0655,0.0655,0,0,0.1009,0.0929,0.0963,0.0884,0.0773,0.0732,0.0639,0.0653,0.0777,0.0596,0.0878,0.0835,0.0716,0.0894,0.0975,0.0902,0.1276,0.1173,0.1213,0.1263,0.123,0.1291,0.1345,0.0662,0.0661,0.066,0,0,0.1166,0.122,0.1254,0.1187,0.1073,0.0955,0.0993,0.0923,0.1071,0.1217,0.1139,0.1263,0.1307,0.1323,0.1301,0.1572,0.1479,0.1618,0.2049,0.2031,0.2084,0.2129,0.2093,0.213,0.1711,0.1713,0.1713,0,0.1352,0.1362,0.1248,0.125,0.1212,0.1069,0.1095,0.1181,0.1225,0.132,0.1401,0.1483,0.1516,0.1606,0.1825,0.1716,0.1658,0.1869,0.2108,0.2149,0.2185,0.2136,0.217,0.1743,0.1739,0.1736,0.1733,0,0.1442,0.1526,0.151,0.145,0.145,0.1427,0.1424,0.16,0.1749,0.1785,0.202,0.2048,0.2076,0.22,0.2176,0.2467,0.2326,0.213,0.1997,0.2286,0.2212,0.2237,0.1786,0.1775,0.1766,0.1758,0,0,0.157,0.1567,0.1568,0.1601,0.1565,0.1526,0.1765,0.1801,0.1934,0.2203,0.2388,0.2633,0.2667,0.2649,0.2651,0.2841,0.3192,0.2757,0.2741,0.2789,0.3183,0.2962,0.2963,0.3067,0.3074,0.3079,0.3043,0,0.1619,0.1666,0.1677,0.1764,0.1751,0.1788,0.1949,0.2084,0.2224,0.2412,0.2578,0.2689,0.2809,0.2909,0.3136,0.3096,0.328,0.3221,0.2835,0.2824,0.2649,0.2993,0.3101,0.3059,0.3064,0.3068,0.307,0,0.1648,0.167,0.1764,0.1874,0.1869,0.1955,0.2104,0.2265,0.2457,0.2607,0.2791,0.2827,0.3159,0.3201,0.3408,0.3373,0.342,0.3428,0.3416,0.3026,0.2651,0.2684,0.311,0.3107,0.3104,0.3101,0.3099,0,0.1642,0.1732,0.1802,0.1839,0.194,0.2086,0.2148,0.2327,0.2485,0.2706,0.2822,0.3019,0.3182,0.3297,0.3474,0.3461,0.3638,0.3469,0.3272,0.3248,0.3183,0.3133,0.3634,0.3634,0.3634,0.3634,0.3635,0,0.1609,0.1686,0.1821,0.1857,0.199,0.2118,0.2283,0.2401,0.2603,0.2727,0.2915,0.3056,0.3265,0.3383,0.3486,0.3487,0.3577,0.3449,0.3275,0.3429,0.3409,0.32,0.3151,0.3633,0.3633,0.3634,0.3634,0,0.157,0.1641,0.1757,0.1917,0.1989,0.211,0.2329,0.2432,0.2626,0.2823,0.2918,0.3147,0.3269,0.3365,0.3496,0.3439,0.3436,0.3386,0.3602,0.3416,0.3057,0.3038,0.3152,0.3145,0.3139,0.3134,0.313,0,0.1526,0.1589,0.1785,0.1857,0.1936,0.2122,0.2224,0.2437,0.2548,0.2848,0.2928,0.3131,0.3254,0.3209,0.3337,0.3315,0.3304,0.3248,0.3247,0.3216,0.3033,0.3023,0.3012,0.3121,0.3119,0.3118,0.3116,0,0.1459,0.1567,0.163,0.1767,0.1906,0.2057,0.2236,0.2312,0.2562,0.2757,0.2871,0.2943,0.3041,0.3088,0.3084,0.3088,0.326,0.3186,0.3198,0.3197,0.3178,0.3,0.2996,0.3096,0.3099,0.3101,0.3102,0,0.142,0.1445,0.1538,0.1667,0.1826,0.1961,0.2069,0.2203,0.2347,0.2659,0.2688,0.2861,0.3022,0.2971,0.2987,0.2951,0.2919,0.2833,0.2863,0.2887,0.2826,0.2765,0.2507,0,0,0,0,0,0.1358,0.1375,0.1431,0.1558,0.1707,0.1819,0.2054,0.2166,0.2415,0.2426,0.2554,0.2623,0.2665,0.2747,0.2655,0.2877,0.2929,0.276,0.2846,0.2983,0.3006,0.2964,0,0,0,0,0,0,0.1306,0.136,0.1366,0.1451,0.1523,0.1685,0.1845,0.201,0.2027,0.2264,0.2281,0.2456,0.2507,0.2662,0.2592,0.2617,0.262,0.2862,0.2855,0.2969,0.2991,0.301,0.2974,0,0,0,0,0]},{"header":{"parameterUnit":"m.s-1","parameterCategory":2,"la1":30.2991,"la2":30.254,"lo1":-89.0895,"lo2":-89.0444,"dx":0.0017,"dy":0.0017,"nx":28,"ny":28,"refTime":"2023-02-12T09:00:00:Z","depth":"4","parameterNumber":3,"parameterNumberName":"V-component_of_CURRENTS"},"data":[0,0,0,0,0,0,0,0,0,0,0,0,0,0,0,0,0,0,0,0,0,0,0,0,0,0,0,0,0,0,0,0,0,0,0,0,0,0,0,0,0,0,0,0,0,0,0,0,0,0,0,0,0,0,0,0,0,0,0.0757,0.0759,0,0.0904,0.0905,0.0907,0.1072,0.1075,0.1077,0.108,0.108,0.1078,0.1075,0,0,0,0,0,0,0,0,0,0,0,0,0,0.059,0.0593,0.0757,0.0759,0.0761,0.0903,0.0905,0.0907,0.1072,0.1075,0.1078,0.1081,0.1081,0.1078,0.1075,0,0,0,0,0,0,0,0,0,0,0,0,0,0.0692,0.0593,0.0757,0.086,0.0871,0.0903,0.0905,0.0908,0.1071,0.1075,0.1079,0.1082,0.1081,0.1078,0.1075,0.0978,0,0,0.1064,0.1063,0,0,0,0,0,0,0,0,0.0686,0.0698,0.0843,0.0853,0.0866,0.0974,0.0847,0.0924,0.107,0.0995,0.108,0.1084,0.1028,0.1029,0.105,0.0979,0.0979,0.1064,0.1062,0.106,0.1059,0,0,0,0,0,0,0,0.0679,0.0692,0.0815,0.0845,0.0859,0.089,0.0908,0.0863,0.0985,0.1002,0.1014,0.103,0.1034,0.1053,0.1051,0.0979,0.1064,0.1061,0.1059,0.1057,0.0968,0.0967,0,0,0,0,0,0,0.0659,0.0685,0.081,0.0819,0.0784,0.089,0.0911,0.0935,0.099,0.1003,0.1027,0.1037,0.1057,0.1055,0.1051,0.1087,0.106,0.1057,0.1055,0.0968,0.0968,0.0967,0,0,0,0,0,0,0.0655,0.0669,0.0804,0.0755,0.0775,0.0889,0.0915,0.0936,0.108,0.101,0.1022,0.1164,0.106,0.1056,0.1057,0.1082,0.1055,0.1052,0.0968,0.0968,0.0967,0.1063,0,0,0,0,0,0,0.065,0.0667,0.0719,0.0754,0.0777,0.0913,0.0912,0.0936,0.1076,0.1095,0.1128,0.1126,0.1063,0.1063,0.1054,0.1077,0.105,0.0969,0.0968,0.0968,0.106,0.1065,0.107,0,0,0,0,0,0.0643,0.0668,0.072,0.0738,0.0831,0.0917,0.0935,0.1024,0.1081,0.1166,0.1139,0.1131,0.1053,0.1059,0.1049,0.1072,0.0969,0.0968,0.0968,0.1058,0.1064,0.107,0,0,0,0,0,0,0.0623,0.0688,0.0746,0.0795,0.0902,0.0948,0.1001,0.1094,0.115,0.1181,0.1124,0.1117,0.1128,0.1081,0.109,0.1041,0.1011,0.1008,0.1083,0.1089,0.1094,0.1022,0.1047,0,0,0,0,0,0.064,0.0667,0.0773,0.0813,0.0868,0.0968,0.103,0.1129,0.116,0.1203,0.1199,0.1163,0.1094,0.1088,0.1039,0.1013,0.0918,0.102,0.1025,0.103,0.0962,0.0816,0.0801,0.0965,0.0965,0.0965,0,0,0.0645,0.0672,0.0701,0.0812,0.0875,0.0948,0.1018,0.1155,0.1211,0.1176,0.1228,0.1202,0.1095,0.1058,0.1059,0.1038,0.0952,0.1029,0.1034,0.0961,0.0813,0.0797,0.0782,0.0965,0.0965,0.0965,0,0,0.0633,0.0696,0.0741,0.0822,0.0966,0.1007,0.1085,0.1218,0.1286,0.1339,0.1292,0.1271,0.1228,0.1122,0.1057,0.1059,0.0993,0.1089,0.1047,0.0911,0.0894,0.0879,0.0819,0.0797,0.1082,0.1082,0.1082,0,0.0652,0.0713,0.0776,0.0839,0.0887,0.1042,0.1127,0.1188,0.1311,0.1304,0.1376,0.1248,0.1221,0.1061,0.1061,0.1069,0.1,0.1043,0.0915,0.0897,0.0879,0.082,0.0795,0.1087,0.1086,0.1086,0.1085,0,0.0692,0.0762,0.078,0.0877,0.0942,0.1048,0.1134,0.1219,0.1309,0.1341,0.1314,0.1259,0.1159,0.1174,0.111,0.097,0.0972,0.0953,0.09,0.0868,0.081,0.0782,0.1093,0.1091,0.109,0.1089,0,0,0.0679,0.0796,0.081,0.0872,0.0994,0.1053,0.1082,0.114,0.1157,0.1243,0.1203,0.1108,0.1118,0.1037,0.0998,0.0883,0.0764,0.0867,0.0858,0.0808,0.0504,0.0523,0.0494,0.0725,0.0718,0.0713,0.0544,0,0.072,0.082,0.085,0.0941,0.1019,0.1077,0.1074,0.1131,0.1168,0.1165,0.1103,0.1067,0.1053,0.1044,0.0914,0.0804,0.0678,0.0813,0.0535,0.0527,0.0546,0.0455,0.0693,0.0523,0.0516,0.0511,0.0507,0,0.0774,0.0829,0.0931,0.0988,0.1023,0.1065,0.1071,0.1109,0.1072,0.1101,0.1022,0.1004,0.0849,0.0876,0.0595,0.0687,0.0569,0.0487,0.0478,0.0412,0.0487,0.0536,0.0455,0.0459,0.0463,0.0466,0.0469,0,0.0762,0.0871,0.0941,0.0979,0.1068,0.1076,0.11,0.1088,0.1114,0.1054,0.1069,0.0891,0.0855,0.0638,0.0502,0.0531,0.0214,0.0241,0.0129,0.0134,0.0132,0.0149,-0.0028,-0.0027,-0.0027,-0.0026,-0.0026,0,0.079,0.0844,0.0954,0.1007,0.107,0.1101,0.1132,0.1131,0.1123,0.1131,0.1043,0.1006,0.0786,0.0621,0.0454,0.0214,0.0165,0.0061,0.0048,0.0194,0.0218,0.0117,0.0136,-0.0033,-0.0031,-0.003,-0.0029,0,0.0786,0.0859,0.0949,0.1048,0.1086,0.1128,0.1199,0.1216,0.1205,0.1203,0.1191,0.107,0.0854,0.0637,0.0319,0.0187,-0.0054,-0.0136,0.007,0.0083,-0.0024,0.0002,-0.0299,-0.03,-0.0302,-0.0303,-0.0304,0,0.0793,0.0851,0.0992,0.105,0.1107,0.1181,0.1237,0.1264,0.1287,0.1243,0.1242,0.106,0.0948,0.053,0.0286,-0.0068,-0.0114,-0.0229,-0.0198,-0.0092,-0.0074,-0.0045,-0.0017,-0.0306,-0.0307,-0.0307,-0.0308,0,0.0798,0.0855,0.0941,0.1085,0.1168,0.1256,0.1331,0.1359,0.1374,0.1361,0.1267,0.1066,0.0824,0.0525,0.0253,0.0001,-0.0152,-0.0245,-0.0243,-0.0215,-0.0104,-0.0078,-0.005,-0.0313,-0.0312,-0.0311,-0.0311,0,0.0795,0.0852,0.098,0.1103,0.1213,0.1309,0.1342,0.1371,0.1398,0.1354,0.1312,0.1067,0.0924,0.0558,0.0304,0.0059,-0.0004,-0.0076,-0.0085,-0.0082,0.0035,0.0211,0.0028,0,0,0,0,0,0.0795,0.0872,0.0982,0.1119,0.1232,0.1315,0.1405,0.1426,0.144,0.1383,0.1355,0.1132,0.0756,0.0598,0.0349,0.0265,-0.0051,-0.0035,-0.0138,-0.0341,-0.0335,-0.0235,0,0,0,0,0,0,0.0793,0.0898,0.098,0.1126,0.1224,0.1352,0.1422,0.1432,0.14,0.1371,0.1177,0.1074,0.0712,0.09,0.0347,0.0272,0.0172,-0.0209,-0.0215,-0.0344,-0.0339,-0.0334,-0.023,0,0,0,0,0]}]]